Torna al catalogo

FENGYUN 1C DEB

AttivoSSO
NORAD 30543·DEBRIS·🇨🇳 China

Lanciato May 10, 1999 da Taiyuan Satellite Launch Center

Loading…

Prossimi Passaggi (prossime 24 ore)

TLE

AggiornatoSource: Space-Track

Epoca: Sep 14, 2026, 12:38 UTC

1 30543U 99025AKH 26257.52670279  .00000044  00000-0  53911-4 0  9991
2 30543  98.8317 264.3052 0071588 343.1098 168.7015 14.03921283  3736

Traccia FENGYUN 1C DEB in tempo reale con AllMySat

Download on the App Store